Location: Lima
(44.6384°N, 112.5920°W)
Time: 01:07:29
(UTC+00:00)

MOZHAYETS 4 - Visible Passes

Search period start: 24 April 2024 00:00
Search period end: 04 May 2024 00:00
Orbit: 654 x 670 km, 98.3° (Epoch: 23 April)

Date Brightness Start Highest point End Pass type
(mag) Time Alt. Az. Time Alt. Az. Time Alt. Az.
24 Apr 8.7 10:15:47 10° SE 10:20:10 47° ENE 10:24:35 10° N visible
24 Apr 9.1 11:54:01 10° SW 11:57:19 19° W 12:00:38 10° NW visible
25 Apr 10.7 09:12:21 10° E 09:14:06 12° ENE 09:15:52 10° NE visible
25 Apr 7.7 10:45:44 10° SSE 10:50:19 88° WSW 10:54:57 10° NNW visible
26 Apr 10.1 09:40:28 10° ESE 09:43:58 22° ENE 09:47:29 10° NNE visible
26 Apr 8.1 11:16:14 10° S 11:20:36 43° W 11:25:00 10° NNW visible
27 Apr 9.0 10:09:40 10° SE 10:13:56 40° ENE 10:18:15 10° N visible
27 Apr 8.9 11:47:25 10° SW 11:51:00 22° W 11:54:36 10° NW visible
28 Apr 10.9 09:07:07 10° ENE 09:07:56 10° ENE 09:08:45 10° NE visible
28 Apr 7.8 10:39:28 10° SSE 10:44:03 80° ENE 10:48:40 10° NNW visible
29 Apr 10.3 09:34:30 10° ESE 09:37:44 19° ENE 09:40:58 10° NNE visible
29 Apr 7.9 11:09:49 10° S 11:14:16 51° W 11:18:46 10° NNW visible
30 Apr 9.3 10:03:30 10° SE 10:07:40 35° ENE 10:11:50 10° N visible
30 Apr 8.8 11:40:48 10° SSW 11:44:37 26° W 11:48:28 10° NW visible
01 May 8.0 10:33:10 10° SSE 10:37:43 69° ENE 10:42:17 10° N visible
02 May 10.5 09:28:31 10° E 09:31:26 17° ENE 09:34:21 10° NNE visible
02 May 7.7 11:03:21 10° S 11:07:53 60° W 11:12:26 10° NNW visible
03 May 9.6 09:57:19 10° SE 10:01:19 30° ENE 10:05:20 10° N visible
03 May 8.6 11:34:10 10° SSW 11:38:11 30° W 11:42:13 10° NW visible
